Location: *
(49.9853°N, 3.5569°E)
Time: 00:45:37
(UTC+00:00)

GP-B - Pass Details

Date: 22 September 2019
Orbit: 631 x 635 km, 89.8° (Epoch: 22 October)

Event Time Altitude Azimuth Distance (km) Brightness Sun altitude
Rises 18:54:40 0° 357° (N) 2,943 6.8 -12.0°
Reaches altitude 10° 18:56:56 10° 353° (N) 2,029 6.0 -12.3°
Maximum altitude 19:01:17 55° 277° (W) 769 3.9 -13.0°
Drops below altitude 10° 19:05:36 10° 200° (SSW) 2,011 5.7 -13.6°
Sets 19:07:50 0° 196° (SSW) 2,914 6.5 -14.0°
